Regional Weather Roundup
Issued by NWS

Home | Current Version | Previous Version | Graphics & Text | Print | Product List | Glossary On
Versions: 1 2 3 4 5 6 7 8 9 10 11 12 13 14 15 16 17 18 19 20 21 22 23 24 25 26 27 28 29 30 31 32 33 34 35 36 37 38 39 40 41 42 43 44 45 46 47 48 49 50
000
ASUS43 KIND 301909
RWRIN

WEATHER ROUNDUP FOR INDIANA
NATIONAL WEATHER SERVICE INDIANAPOLIS IN
300 PM EDT TUE SEP 30 2014

NOTE: "FAIR" INDICATES FEW OR NO CLOUDS BELOW 12,000 FEET WITH NO
SIGNIFICANT WEATHER AND/OR OBSTRUCTIONS TO VISIBILITY.

* - STATION DOES NOT REPORT WEATHER SUCH AS PRECIPITATION OR FOG.

+ - STATION NOT QUALITY CONTROLLED BY THE NATIONAL WEATHER SERVICE.
    USE DATA WITH CAUTION...ESPECIALLY DEWPOINT AND RELATIVE
    HUMIDITY OBSERVATIONS.

INZ001>003-010>013-019-020-302000-
NORTHWEST INDIANA

CITY           SKY/WX    TMP DP  RH WIND       PRES   REMARKS
GARY /AIRPORT/ PTSUNNY   61  50  67 N14       30.03F
KNOX *+        CLOUDY    60  48  64 NE7G16    29.99F
LA PORTE +     CLOUDY    58  49  72 N12       30.01F
MICHIGAN CITY+ CLOUDY    55  43  62 N9        30.02F
MONTICELLO +   SUNNY     65  50  58 N8        29.96F
RENSSELAER +   MOSUNNY   61  52  72 NW12      29.99F
VALPARAISO     CLOUDY    58  47  66 N8        30.01F

$$

LMZ046-743>745-302000-
SOUTHERN LAKE MICHIGAN

STATION/POSITION TIME  TEMP WIND        PRES
                       AIR  DIR/SP/G
                 (UTC) (F)  (DEG/KT/KT) (MB)
MICHIGAN CITY    1900   55  360/ 15/ 18   N/A

$$

INZ004-005-014>016-021>024-302000-
NORTH CENTRAL INDIANA

CITY           SKY/WX    TMP DP  RH WIND       PRES   REMARKS
ELKHART        CLOUDY    55  45  67 NE6       30.01F
LOGANSPORT +   SUNNY     63  46  55 N8        29.98F
PERU/GRISSOM   SUNNY     64  53  69 VRB7      29.97F
ROCHESTER +    SUNNY     63  50  63 N12G20    29.98F
SOUTH BEND     CLOUDY    57  45  62 N12       30.01F
WARSAW +       PTSUNNY   59  48  67 NE12      29.99F

$$

INZ006>009-017-018-025>027-302000-
NORTHEAST INDIANA

CITY           SKY/WX    TMP DP  RH WIND       PRES   REMARKS
ANGOLA *+      CLOUDY    55  46  71 N3        29.99F
AUBURN +       MOSUNNY   54  45  71 N6        30.00S
FORT WAYNE     CLOUDY    56  48  74 N10       29.99F
HUNTINGTON +   CLOUDY    56  48  74 NE6       29.98F

$$

INZ028-029-035-036-043>045-051>053-302000-
WEST CENTRAL INDIANA

CITY           SKY/WX    TMP DP  RH WIND       PRES   REMARKS
GREENCASTLE +  SUNNY     68  55  64 N7        29.96F
LAFAYETTE      MOSUNNY   66  51  58 VRB3      29.96F
TERRE HAUTE    SUNNY     72  56  57 NW5       29.95F

$$

INZ030>032-037>040-046>048-054>057-064-065-302000-
CENTRAL INDIANA

CITY           SKY/WX    TMP DP  RH WIND       PRES   REMARKS
ANDERSON       MOSUNNY   64  48  55 NW12      29.97F
CP ATTERBURY + SUNNY     73  57  56 N7        29.93F
FRANKFORT +    SUNNY     67  51  57 N7        29.97F
INDIANAPOLIS   PTSUNNY   70  54  56 N7        29.94F
-EAGLE CREEK   MOSUNNY   69  53  56 N8        29.94F
KOKOMO *+      SUNNY     66  48  52 N8        29.97F
MARION +       SUNNY     63  46  53 NW3       29.97F
MT COMFORT *+  SUNNY     68  48  49 N7        29.96F
SHELBYVILLE    MOSUNNY   73  56  54 N8        29.93F
ZIONSVILLE +   PTSUNNY   66  50  56 N6        29.96F

$$

INZ033-034-041-042-049-050-058-059-302000-
EAST CENTRAL INDIANA

CITY           SKY/WX    TMP DP  RH WIND       PRES   REMARKS
MUNCIE         PTSUNNY   63  50  62 N7        29.96F

$$

INZ060-061-067>069-081>083-085>088-302000-
SOUTHWEST INDIANA

CITY           SKY/WX    TMP DP  RH WIND       PRES   REMARKS
EVANSVILLE     PTSUNNY   86  54  33 NW7       29.91F
WASHINGTON +   SUNNY     78  61  56 CALM      29.92F

$$

INZ062-063-066-070>080-084-089>092-302000-
SOUTH CENTRAL AND SOUTHEAST INDIANA

CITY           SKY/WX    TMP DP  RH WIND       PRES   REMARKS
BLOOMINGTON    SUNNY     71  58  63 VRB3      29.94F
NORTH VERNON + MOSUNNY   73  57  56 NW7       29.93
SEYMOUR +      SUNNY     77  61  57 NW6       29.92F

$$



USA.gov is the U.S. government's official web portal to all federal, state and local government web resources and services.